DMSP 5D-2 F13 DEB, 40470

Orbit data source: Space-Track

DMSP 5D-2 F13 DEB, 40470 is space debris in SSO originally from a launch on Fri, 24 Mar 1995 UTC launched from the Air Force Western Test Range (AFWTR). Debris objects in space refer to the collection of defunct objects orbiting the Earth. Examples of debris include non-operational satellites, rocket bodies, and fragments generated from explosions, collisions, or faulty payload assembly.

Loading next visibility...
Identifier
40470, 1995-015BN
Orbit
SSO
Country
Flag of USUS
Related business
Manufacturer
Unknown
Mission
Spacecraft
Bus & Motor
Unknown
Mass
Unknown
Launch date (UTC)
1995-03-24 (31 years ago)
Launch vehicle
Unknown
Launch site
Air Force Western Test Range (AFWTR)
Object type
Payload
Rocket body
Debris
Shape & HBR
Unknown shape, 0.1 m
Radar Cross Section
Small (<0.1 m²)

Expand to show TLE details & history
Last TLE update: 22 hours ago

TLE from 22 hours ago
0 DMSP 5D-2 F13 DEB
1 40470U 95015BN  26070.95412025  .00003890  00000-0  17383-2 0  9992
2 40470  98.9962  69.3752 0044709   7.3253 352.8568 14.22733393566085
Epoch: 2026-03-11T22:53Z
TLE epoch observation values (Epoch: 2026-03-11T22:53:55.989Z)
Latitude
-0.00001°
Longitude
-83.71904°
Altitude
787.113 km
Speed
7.477 km/s
True Right ascension
04h 37m 30s
True Declination
0° 00' 00"
Sunlit
Object was in daylight at epoch
Visualization orbit readout
Latitude
Unknown
Longitude
Unknown
Altitude
Unknown
Speed
Unknown
Apparent Right ascension
Unknown
Apparent Declination
Unknown
Sunlit
N/A
Visualization observer readout
Local Sidereal Time
01:18:37
Azimuth
Unknown
Elevation
Unknown
Doppler factor
Unknown
Orbital elements
Apogee altitude
845.444 km
Perigee altitude
781.14 km
Semi-major axis
7,191.429 km
Eccentricity
0.00447
Inclination
98.9962°
RAAN
69.3752°
Arg. of periapsis
7.3253°
True anomaly
352.79274°
Mean anomaly
352.8568°
Eccentric anomaly
352.8248°
Mean motion
3.55894 °/min
Orbital period
101.15 mins
BSTAR
0.0017383
Loading maneuver chart data...
Computing Atmospheric mass density...
Loading historical data...
Loading historical data...
Loading historical data...
Loading historical data...
Loading historical data...
Loading historical data...
Loading historical data...

Documentation

Showing up to 5 results
|